Location: Buch
(50.1863°N, 11.0141°E)
Time: 00:41:37
(UTC+00:00)

Cosmos 2181 Rocket - Pass Details

Date: 18 January 2020
Orbit: 952 x 1014 km, 82.9° (Epoch: 28 February)

Event Time Altitude Azimuth Distance (km) Brightness Sun altitude
Rises 06:17:52 0° 211° (SSW) 3,636 6.9 -7.9°
Reaches altitude 10° 06:20:29 10° 218° (SW) 2,701 6.2 -7.5°
Maximum altitude 06:26:19 43° 289° (WNW) 1,353 4.3 -6.6°
Drops below altitude 10° 06:32:18 10° 359° (N) 2,758 6.1 -5.7°
Sets 06:35:01 0° 7° (N) 3,721 6.8 -5.4°
